Regional Weather Roundup
Issued by NWS Kansas City/Pleasant Hill, MO

Home | Current Version | Previous Version | Graphics & Text | Print | Product List | Glossary Off
Versions: 1 2 3 4 5 6 7 8 9 10 11 12 13 14 15 16 17 18 19 20 21 22 23 24 25 26 27 28 29 30 31 32 33 34 35 36 37 38 39 40 41 42 43 44 45 46 47 48 49 50

000
ASUS43 KEAX 022011
RWREAX

WEATHER ROUNDUP FOR EASTERN KANSAS AND NORTHWEST MISSOURI
NATIONAL WEATHER SERVICE KANSAS CITY/PLEASANT HILL MO
300 PM CDT TUE SEP 02 2014

KSZ040-057-103>105-MOZ028-029-037-043-022100-
...KANSAS CITY METROPOLITAN AREA...

CITY           SKY/WX    TMP DP  RH WIND       PRES   REMARKS
K.C. INTL      PTSUNNY   81  67  62 SW9       30.00F
K.C. DOWNTOWN  MOSUNNY   82  67  60 SW8       29.98F
LEES SUMMIT    PTSUNNY   80  67  64 W7        30.01F
OLATHE - IXD   PTSUNNY   79  70  74 S8        30.01F
OLATHE - OJC   MOSUNNY   79  70  74 VRB6      30.00F
LAWRENCE       MOSUNNY   79  68  69 S6        30.01F

$$

MOZ001>008-011>017-020>025-030>033-038>040-044>046-053-054-022100-
...NORTHERN AND CENTRAL MISSOURI...

CITY           SKY/WX    TMP DP  RH WIND       PRES   REMARKS
ST. JOSEPH     SUNNY     83  64  52 NW7       29.99F
MOSBY          MOCLDY    81  66  61 W5        29.98F
WHITEMAN AFB   PTSUNNY   78  70  77 SW12      30.00F
CLINTON        CLOUDY    75  72  88 W9        30.02F
SEDALIA        PTSUNNY   78  70  76 SW10      30.01F
WARSAW         NOT AVBL
MARSHALL       MOSUNNY   82  70  65 W5        29.99  HAZE
CHILLICOTHE      N/A     83  66  56 SW6       30.00S
MOBERLY        MOSUNNY   82  64  54 SW7       30.00
KIRKSVILLE     MOSUNNY   81  63  54 W5        29.99F

$$

MOZ041-047>049-056>058-063>065-088>090-097-022100-
...EASTERN AND SOUTHERN MISSOURI...

CITY           SKY/WX    TMP DP  RH WIND       PRES   REMARKS
ST. LOUIS INTL PTSUNNY   82  69  64 NW9       29.98F
SPIRIT OF STL  CLOUDY    81  69  67 W7        29.96F
COLUMBIA       CLOUDY    79  70  74 W8        29.99F
JEFFERSON CITY CLOUDY    79  69  71 NW7       29.99F
HANNIBAL       MOSUNNY   82  61  47 W8        29.98F
ROLLA          CLOUDY    75  66  73 NW8       30.00F
LEBANON        CLOUDY    79  64  61 W8        30.01F
OSAGE BEACH    CLOUDY    79  66  65 W9        30.00F
SPRINGFIELD    CLOUDY    76  65  68 W8        30.01F
BRANSON        CLOUDY    73  66  78 CALM      30.02F
NEVADA         PTSUNNY   81  68  65 W5        30.01F
JOPLIN         CLOUDY    77  67  71 CALM      30.00F
WEST PLAINS    CLOUDY    74  65  73 VRB6      30.02F

$$

IAZ060-094-KSZ022-034>040-054-083-096-NEZ052-066-093-022100-
...KANSAS...SOUTHEAST NEBRASKA AND IOWA...

CITY           SKY/WX    TMP DP  RH WIND       PRES   REMARKS
TOPEKA         PTSUNNY   82  70  66 S8        30.00F
MANHATTAN      SUNNY     85  64  49 VRB3      29.98F
EMPORIA        PTSUNNY   82  69  64 S9        30.00F
CHANUTE        MOSUNNY   82  64  54 SW8       30.00F
WICHITA        MOSUNNY   86  65  49 S14       29.98F
OMAHA          MOSUNNY   79  53  40 SW9       29.99F
LINCOLN        SUNNY     81  56  42 W8        30.01F
FALLS CITY     SUNNY     84  61  45 VRB7      29.99F
LAMONI         SUNNY     79  60  52 W9        30.00R
DES MOINES     MOSUNNY   79  57  46 W10       29.96F

$$



USA.gov is the U.S. government's official web portal to all federal, state and local government web resources and services.